Location: Radomski Observatory
(40.2854°N, 79.5145°W)
Time: 01:21:52
(UTC-04:00)

Cosmos 1072 Rocket - Visible Passes

Search period start: 25 May 2015 00:00
Search period end: 04 June 2015 00:00
Orbit: 949 x 1008 km, 82.9° (Epoch: 23 May)

Date Brightness Start Highest point End Pass type
(mag) Time Alt. Az. Time Alt. Az. Time Alt. Az.
25 May 4.8 04:19:53 10° S 04:25:56 65° E 04:32:07 10° NNE visible
26 May 6.8 03:03:56 10° ESE 03:07:28 17° E 03:11:20 10° NE visible
26 May 4.5 04:46:12 10° SSW 04:52:19 69° W 04:58:33 10° N visible
27 May 6.0 03:28:17 10° SSE 03:33:32 31° E 03:38:58 10° NNE visible
27 May 5.2 05:13:14 10° SW 05:18:55 37° WNW 05:24:38 10° N visible
28 May 5.0 03:54:18 13° SSE 03:59:43 59° E 04:05:52 10° NNE visible
29 May 6.8 02:38:13 10° ESE 02:41:19 15° E 02:44:46 10° NE visible
29 May 4.5 04:20:53 15° SSW 04:26:05 76° W 04:32:22 10° N visible
30 May 6.1 03:02:41 12° SE 03:07:21 28° E 03:12:38 10° NNE visible
30 May 5.0 04:47:26 13° SW 04:52:38 41° WNW 04:58:31 10° N visible
31 May 5.1 03:29:13 19° SSE 03:33:31 53° E 03:39:37 10° NNE visible
31 May 5.8 05:14:35 10° WSW 05:19:27 23° WNW 05:24:12 10° NNW visible
01 Jun 6.8 02:12:37 10° ESE 02:15:10 13° E 02:18:07 10° NE visible
01 Jun 4.4 03:55:43 23° S 03:59:51 84° W 04:06:11 10° N visible
02 Jun 6.1 02:37:27 15° SE 02:41:11 26° E 02:46:17 10° NNE visible
02 Jun 4.9 04:22:12 19° SW 04:26:22 46° WNW 04:32:23 10° N visible
03 Jun 5.2 03:03:55 24° SSE 03:07:20 48° E 03:13:22 10° NNE visible
03 Jun 5.7 04:48:40 12° WSW 04:53:08 25° WNW 04:58:10 10° NNW visible
